Location: Arleux
(50.3632°N, 2.8721°E)
Time: 08:37:02
(UTC+00:00)

METEOR-M - Pass Details

Date: 15 December 2019
Orbit: 817 x 818 km, 98.4° (Epoch: 21 January)

Event Time Altitude Azimuth Distance (km) Brightness Sun altitude
Rises 05:31:29 0° 13° (NNE) 3,361 7.3 -19.5°
Reaches altitude 10° 05:33:51 10° 13° (NNE) 2,425 6.6 -19.2°
Maximum altitude 05:39:13 81° 287° (WNW) 836 4.0 -18.3°
Drops below altitude 10° 05:44:33 10° 201° (SSW) 2,408 6.5 -17.5°
Sets 05:46:53 0° 200° (SSW) 3,337 7.3 -17.2°
